Погода в Саидии

Марокко     35°05′34″N   2°15′37″W
темп.,
°C
ветер,
м/с
пор.,
м/с
влажн.,
%
обл.,
%
осадки,
мм/ч
давл.,
гПа
погр.,
м
4 марта, чт
чт401:00+13св359296 0.4 1024323
04:00+11св229588 0.1 102395
07:00+10всв129763 0.2 102194
10:00+14в227867 0.1 1022514
13:00+16св446748 0.1 1020882
16:00+15св667656 0.0 1017585
19:00+13св458876 0.0 1016208
22:00+11всв2395100 0.0 101888
5 марта, пт
пт501:00+10юз119489 0.0 101748
04:00+10юв119399 0.0 101532
07:00+10з119299 0.0 101532
10:00+14сз0177100 0.0 1015273
13:00+14св1181100 0.5 1015139
16:00+16всв336996 0.3 1014553
19:00+14всв568192 0.5 1014166
22:00+12вюв128654 0.0 101646
6 марта, сб
сб601:00+13юз238676 0.8 101691
04:00+13в468299 0.4 1015169
07:00+12всв458799 0.4 1015147
10:00+15вюв5773100 0.1 1016486
13:00+18всв776393 0.1 1016860
16:00+17св8107598 0.7 1014471
19:00+14св8128899 2.6 1014434
22:00+13всв5119081 2.1 1017536
7 марта, вс
вс701:00+12всв359591 4.4 1018222
04:00+12ссв3596100 0.7 1017257
07:00+13св599499 1.6 1018447
10:00+12ссв4596100 3.3 1019337
13:00+13ссв3595100 7.9 1020323
16:00+13ссв3490100 5.9 1018358
19:00+12ссв239499 6.8 1018195
22:00+11ююз1194100 0.1 102051
8 марта, пн
пн801:00+10юз119498 0.1 102042
04:00+10ю1293100 0.0 101935
07:00+9ю118951 0.0 101933
10:00+14зюз11720 0.0 1020356
13:00+16ссз33660 0.4 1019712
16:00+16с33680 0.6 1017581
19:00+12св128311 0.6 101836
22:00+11в008712 0.0 101929